Regional Weather Roundup
Issued by NWS

Home | Current Version | Previous Version | Text Only | Print | Product List | Glossary Off
Versions: 1 2 3 4 5 6 7 8 9 10 11 12 13 14 15 16 17 18 19 20 21 22 23 24 25 26 27 28 29 30 31 32 33 34 35 36 37 38 39 40 41 42 43 44 45 46 47 48 49 50

000
ASUS43 KLMK 271402
RWRKY
KENTUCKY REGIONAL WEATHER ROUNDUP
NATIONAL WEATHER SERVICE LOUISVILLE KY
900 AM EST FRI FEB 27 2015

NOTE "FAIR" INDICATES FEW OR NO CLOUDS BELOW 12,000 FEET
WITH NO SIGNIFICANT WEATHER AND/OR OBSTRUCTIONS TO VISIBILITY.

KYZ001>023-026-027-061>063-070>075-271500-
WESTERN AND SOUTH CENTRAL KENTUCKY

CITY           SKY/WX    TMP DP  RH WIND       PRES   REMARKS
PADUCAH        SUNNY     12   5  73 N12       30.60R WCI  -2
HENDERSON      SUNNY     14   7  73 NW7       30.62R WCI   4
OWENSBORO      SUNNY     13   6  73 N8        30.61R WCI   2
HOPKINSVILLE   MOSUNNY   15   7  69 N9        30.57R WCI   3
BOWLING GREEN  CLOUDY    20  10  65 NE7       30.57R WCI  11
GLASGOW        NOT AVBL
$$

KYZ024-025-028>034-038-045-046-053-271500-
NORTH CENTRAL KENTUCKY

CITY           SKY/WX    TMP DP  RH WIND       PRES   REMARKS
LOUISVILLE/SDF MOSUNNY   16   4  59 N8        30.59R WCI   5
LOUISVILLE/LOU SUNNY     15   3  59 N7        30.59R WCI   5
FORT KNOX      SUNNY     15   5  64 N6        30.55R WCI   6
$$

KYZ035>037-039>044-047>052-055>060-089>105-271500-
NORTHEAST KENTUCKY

CITY           SKY/WX    TMP DP  RH WIND       PRES   REMARKS
LEXINGTON      SUNNY     12   7  80 NW5       30.53R WCI   4
COVINGTON      MOSUNNY    8   0  69 CALM      30.54R
FRANKFORT      CLOUDY    12   4  70 CALM      30.54R
$$

KYZ054-064>069-076>088-106>120-271500-
SOUTHEAST KENTUCKY

CITY           SKY/WX    TMP DP  RH WIND       PRES   REMARKS
JACKSON        SUNNY     14   5  67 NW5       30.47R WCI   6
LONDON         SUNNY     17   4  56 N9        30.49R WCI   6
SOMERSET       NOT AVBL
MIDDLESBORO    FLURRIES  19  13  75 NW8       30.46R WCI   9
MONTICELLO     SUNNY     17   8  67 NE6       30.55R WCI   9
$$



USA.gov is the U.S. government's official web portal to all federal, state and local government web resources and services.